SES-3

Last updated on Tue Oct 15 2024 00:02:39 GMT+0000 (Coordinated Universal Time)

1 37748U 11035A 24288.19575014 -.00000103 00000+0 00000+0 0 9998 2 37748 0.0583 61.2623 0002745 142.9931 146.4696 1.00271213 48469
UTC large
Height (km)
Speed (km/s)
/
Latitude / Longitude
Inclination (degrees)
Orbital Period (minutes)
Azimuth
Elevation
Range (km)
Doppler Factor

Next 0 passes for location: London (51.5072 / 0.1276)

Sorry there are no passes over London.